Location: Cabri�res
(43.7840°N, 5.4986°E)
Time: 00:36:30
(UTC+00:00)

ATLAS 2AS CENTAUR R/B - Pass Details

Date: 09 April 2020
Orbit: 931 x 1280 km, 63.7° (Epoch: 30 May)

Event Time Altitude Azimuth Distance (km) Brightness Sun altitude
Rises 19:57:28 0° 319° (NW) 4,147 7.2 -18.0°
Reaches altitude 10° 20:00:26 10° 314° (NW) 3,135 6.3 -18.5°
Maximum altitude 20:07:26 45° 245° (WSW) 1,503 3.7 -19.5°
Enters shadow 20:13:04 14° 178° (S) 2,618 4.4 -20.4°
